COSMOS 2251 DEB, 35898

Orbit data source: Space-Track

COSMOS 2251 DEB, 35898 is space debris in LEO originally from a launch on Wed, 16 Jun 1993 UTC launched from the Plesetsk Missile And Space Complex (PKMTR). The debris from Iridium 33, an American commercial communications satellite, has been tracked extensively since its accidental collision with the defunct Russian satellite Cosmos 2251 in 2009. This event, occurring at high speed in low Earth orbit (LEO), generated thousands of pieces of space debris, significantly increasing the risk of further collisions. The Iridium 33 debris cloud has impacted space traffic management and orbital debris mitigation strategies, making it a subject of ongoing study in space situational awareness.

Loading next visibility...
Identifier
35898, 1993-036AUM
Orbit
LEO
Country
Flag of CISCIS
Related business
Manufacturer
Unknown
Mission
Spacecraft
Bus & Motor
Unknown
Mass
Unknown
Launch date (UTC)
1993-06-16 (33 years ago)
Launch vehicle
Unknown
Launch site
Plesetsk Missile And Space Complex (PKMTR)
Object type
Payload
Rocket body
Debris
Shape & HBR
Unknown shape, 0.1 m
Radar Cross Section
Small (<0.1 m²)

Expand to show TLE details & history
Last TLE update: 2 days ago

TLE from 2 days ago
0 COSMOS 2251 DEB
1 35898U 93036AUM 26121.99018656  .00007519  00000-0  61604-3 0  9992
2 35898  73.9924  13.3716 0077797 122.8843 252.6710 14.97051444689077
Epoch: 2026-05-01T23:45Z
TLE epoch observation values (Epoch: 2026-05-01T23:45:52.118Z)
Latitude
14.09952°
Longitude
161.09964°
Altitude
594.457 km
Speed
7.555 km/s
True Right ascension
01h 09m 55s
True Declination
14° 00' 60"
Sunlit
Object was in daylight at epoch
Visualization orbit readout
Latitude
Unknown
Longitude
Unknown
Altitude
Unknown
Speed
Unknown
Apparent Right ascension
Unknown
Apparent Declination
Unknown
Sunlit
N/A
Visualization observer readout
Local Sidereal Time
06:33:10
Azimuth
Unknown
Elevation
Unknown
Doppler factor
Unknown
Orbital elements
Apogee altitude
627.655 km
Perigee altitude
519.491 km
Semi-major axis
6,951.71 km
Eccentricity
0.00778
Inclination
73.9924°
RAAN
13.3716°
Arg. of periapsis
122.8843°
True anomaly
251.82247°
Mean anomaly
252.671°
Eccentric anomaly
252.24648°
Mean motion
3.7446 °/min
Orbital period
96.14 mins
BSTAR
0.00061604
Loading maneuver chart data...
Computing Atmospheric mass density...
Loading historical data...
Loading historical data...
Loading historical data...
Loading historical data...
Loading historical data...
Loading historical data...
Loading historical data...

Documentation

Showing up to 5 results
|